COSMOS 2251 DEB, 34879

Orbit data source: Space-Track

COSMOS 2251 DEB, 34879 is space debris in LEO originally from a launch on Wed, 16 Jun 1993 UTC launched from the Plesetsk Missile And Space Complex (PKMTR). The debris from Iridium 33, an American commercial communications satellite, has been tracked extensively since its accidental collision with the defunct Russian satellite Cosmos 2251 in 2009. This event, occurring at high speed in low Earth orbit (LEO), generated thousands of pieces of space debris, significantly increasing the risk of further collisions. The Iridium 33 debris cloud has impacted space traffic management and orbital debris mitigation strategies, making it a subject of ongoing study in space situational awareness.

Loading next visibility...
Identifier
34879, 1993-036ACS
Orbit
LEO
Country
Flag of CISCIS
Related business
Manufacturer
Unknown
Mission
Spacecraft
Bus & Motor
Unknown
Mass
Unknown
Launch date (UTC)
1993-06-16 (33 years ago)
Launch vehicle
Unknown
Launch site
Plesetsk Missile And Space Complex (PKMTR)
Object type
Payload
Rocket body
Debris
Shape & HBR
Unknown shape, 1.1 m
Radar Cross Section
Medium (>0.1 m² and <1 m²)

Expand to show TLE details & history
Last TLE update: 3 days ago

TLE from 3 days ago
0 COSMOS 2251 DEB
1 34879U 93036ACS 26235.05009391  .00002025  00000-0  18410-2 0  9992
2 34879  73.9041 253.5879 0494327 289.1521  65.6705 13.39897915617326
Epoch: 2026-08-23T01:12Z
TLE epoch observation values (Epoch: 2026-08-23T01:12:08.113Z)
Latitude
Longitude
-95.79762°
Altitude
975.292 km
Speed
7.431 km/s
True Right ascension
16h 54m 21s
True Declination
0° 00' 00"
Sunlit
Object was in daylight at epoch
Visualization orbit readout
Latitude
Unknown
Longitude
Unknown
Altitude
Unknown
Speed
Unknown
Apparent Right ascension
Unknown
Apparent Declination
Unknown
Sunlit
N/A
Visualization observer readout
Local Sidereal Time
23:41:08
Azimuth
Unknown
Elevation
Unknown
Doppler factor
Unknown
Orbital elements
Apogee altitude
1,477.424 km
Perigee altitude
737.364 km
Semi-major axis
7,485.531 km
Eccentricity
0.04943
Inclination
73.9041°
RAAN
253.5879°
Arg. of periapsis
289.1521°
True anomaly
70.95915°
Mean anomaly
65.6705°
Eccentric anomaly
68.30211°
Mean motion
3.35127 °/min
Orbital period
107.42 mins
BSTAR
0.001841
Loading maneuver chart data...
Computing Atmospheric mass density...
Loading historical data...
Loading historical data...
Loading historical data...
Loading historical data...
Loading historical data...
Loading historical data...
Loading historical data...

Documentation

Showing up to 5 results
|